Location: Birkenwerder
(52.6919°N, 13.2774°E)
Time: 00:20:38
(UTC+00:00)

Cosmos 1570 Rocket - Pass Details

Date: 01 October 2020
Orbit: 763 x 788 km, 74.1° (Epoch: 24 October)

Event Time Altitude Azimuth Distance (km) Brightness Sun altitude
Exits shadow 03:58:08 15° 270° (W) 2,013 5.5 -11.5°
Maximum altitude 04:01:17 25° 315° (NW) 1,561 5.3 -11.0°
Drops below altitude 10° 04:05:41 10° 10° (N) 2,364 6.8 -10.3°
Sets 04:08:31 0° 23° (NNE) 3,297 7.7 -9.9°
